Tracking 26218 objects as of 26-Sep-2022
HD Live streaming from Space Station
objects crossing your sky now

ABS 3

Track ABS 3 now!
ABS 3 is classified as:


NORAD ID: 24901
Int'l Code: 1997-042A
Perigee: 36,066.5 km
Apogee: 36,095.0 km
Inclination: 8.5 °
Period: 1,450.8 minutes
Semi major axis: 42451 km
RCS: 10 m2 (large)
Launch date: August 19, 1997
Source: People's Republic of China (PRC)
Launch site: Xichang Space Center, China (XSC)

Most powerful telecommunications satellite in service in the Asia-Pacific region; 30 C-band, 24 Ku-band transponders; 190 high fidelity channels and 50,000 simultaneous telephone links.
aabbcc
Your satellite tracking list
Your tracking list is empty




NASA's NSSDC Master Catalog

Two Line Element Set (TLE):
1 24901U 97042A   22268.85131672  .00000073  00000-0  00000-0 0  9991
2 24901   8.4754  52.9643 0003358 102.8542 225.6783  0.99256746 91726
Source of the keplerian elements: AFSPC